Regional Weather Roundup
Issued by NWS Sioux Falls, SD

Home | Current Version | Previous Version | Text Only | Print | Product List | Glossary On
Versions: 1 2 3 4 5 6 7 8 9 10 11 12 13 14 15 16 17 18 19 20 21 22 23 24 25 26 27 28 29 30 31 32 33 34 35 36 37 38 39 40 41 42 43 44 45 46 47 48 49 50
000
ASUS43 KFSD 180910
RWRFSD

WEATHER ROUNDUP FOR SE SOUTH DAKOTA/SW MINNESOTA/NW IOWA
NATIONAL WEATHER SERVICE SIOUX FALLS SD
300 AM CST MON DEC 18 2017

NOTE: "FAIR" INDICATES FEW OR NO CLOUDS BELOW 12,000 FEET WITH NO
SIGNIFICANT WEATHER AND OR OBSTRUCTIONS TO VISIBILITY.


SDZ038>040-050-052>070-181000-
SOUTHEAST SOUTH DAKOTA

CITY           SKY/WX    TMP DP  RH WIND       PRES   REMARKS
BROOKINGS      CLEAR     29  25  85 S9        29.81F WCI  20
CHAMBERLAIN    CLOUDY    30  29  96 W5        29.83R WCI  25
HURON          CLEAR     27  25  92 MISG      29.80S
MADISON        FAIR      28  28 100 SW8       29.81S WCI  20
MITCHELL       CLEAR     29  26  89 S7        29.83S WCI  22
SIOUX FALLS    CLEAR     29  25  85 SW9       29.84F WCI  20
WINNER         FAIR      32  26  78 W12       29.83S WCI  23
YANKTON        CLEAR     24  21  88 SE7       29.86F WCI  16
$$

MNZ071-072-080-081-089-090-097-098-181000-
SOUTHWEST MINNESOTA

CITY           SKY/WX    TMP DP  RH WIND       PRES   REMARKS
FAIRMONT       CLOUDY    29  26  89 SW8       29.89S WCI  21
JACKSON        CLOUDY    27  25  93 SW6       29.87F FOG     WCI  20
LUVERNE        CLEAR     23  21  93 S5        29.87S WCI  17
MARSHALL       CLOUDY    31  27  85 S8        29.84F WCI  23
MONTEVIDEO     CLOUDY    32  28  86 SW7       29.82S WCI  26
PIPESTONE      CLEAR     27  25  93 SW9       29.83F WCI  17
REDWOOD FALLS  CLOUDY    30  28  92 S9        29.84F WCI  22
TRACY          CLOUDY    32  28  86 SW10      29.84F WCI  24
WINDOM           N/A     28  18  64 S3        29.86S HAZE
WORTHINGTON    CLEAR     25  23  92 SW8       29.86F WCI  16
$$

IAZ001>003-012>014-020>022-031-032-NEZ013-014-SDZ071-181000-
NORTHWEST IOWA

CITY           SKY/WX    TMP DP  RH WIND       PRES   REMARKS
CHEROKEE       CLEAR     20  20 100 SW5       29.92R FOG     WCI  13
DENISON        CLOUDY    23  23 100 SW5       29.95F FOG     WCI  17
ESTHERVILLE    CLOUDY    26  25  96 SW8       29.88F WCI  18
LE MARS        CLEAR     21  21 100 S6        29.90F WCI  14
ORANGE CITY    CLEAR     25  25 100 S5        29.88F FOG     WCI  19
SHELDON        CLEAR     25  25 100 SW8       29.87S WCI  16
SIOUX CITY     CLOUDY    18  17  96 E8        29.92F WCI   8
SPENCER        CLEAR     23  21  92 CALM      29.89F FOG
STORM LAKE     CLEAR     21  19  93 SW6       29.90F FOG     WCI  14
$$

ABBREVIATIONS USED IN REMARKS
   TC - TEMPERATURE IN CELSIUS
  WCI - WIND CHILL INDEX
   HX - HEAT INDEX
  VSB - VISIBILITY





USA.gov is the U.S. government's official web portal to all federal, state and local government web resources and services.